Anaktuvuk Pass, AK

1:08 PM AKST on December 06, 2016 (GMT -0900)
Anaktuvuk Pass

Weather History for PAKP - October, 2012

Change the Weather History Date:

Monday, October 22, 2012

  Actual Average Record
Temperature  
Mean Temperature 6 °F -  
Max Temperature 12 °F 8 °F 30 °F (2013)
Min Temperature 0 °F 0 °F -14 °F (1996)
Degree Days  
Heating Degree Days 59    
Moisture  
Dew Point -1 °F    
Average Humidity 69    
Maximum Humidity 73    
Minimum Humidity 62    
Precipitation  
Precipitation 0.00 in - - ()
Sea Level Pressure  
Sea Level Pressure 30.29 in    
Wind  
Wind Speed 14 mph (South)    
Max Wind Speed 21 mph    
Max Gust Speed 25 mph    
Visibility 10 miles    
Events      
Averages and records for this station are not official NWS values.
T = Trace of Precipitation, MM = Missing Value Source: NWS Daily Summary

Daily Weather History Graph

Daily Weather History Graph

Search for Another Location

Airport or City:

Trip Planner

Search our weather history database for the weather conditions in past years. The results will help you decide how hot, cold, wet, or windy it might be!

Date:

Astronomy

Oct. 22, 2012 Rise Set
Actual Time 9:41 AM AKDT 5:59 PM AKDT
Civil Twilight 8:40 AM AKDT 7:00 PM AKDT
Nautical Twilight 7:35 AM AKDT 8:05 PM AKDT
Astronomical Twilight 6:30 AM AKDT 9:10 PM AKDT
Moon 5:05 PM AKDT (10/22) No Moon Set
Length of Visible Light 10h 19m
Length of Day
8h 18m
First Quarter, 58% of the Moon is Illuminated
Oct 22
First Quarter
Oct 29
Full
Nov 6
Last Quarter
Nov 13
New
Nov 20
First Quarter

Hourly Weather History & Observations

Time (AKDT) Temp. Windchill Dew Point Humidity Pressure Visibility Wind Dir Wind Speed Gust Speed Precip Events Conditions
12:16 AM 8.6 °F -10.5 °F 1.4 °F 73% 30.27 in 10.0 mi South 19.6 mph 25.3 mph N/A   Clear
12:36 AM 8.6 °F -11.0 °F 1.4 °F 73% 30.27 in 10.0 mi South 20.7 mph - N/A   Clear
12:56 AM 8.6 °F -10.5 °F 1.4 °F 73% 30.27 in 10.0 mi South 19.6 mph 25.3 mph N/A   Clear
1:16 AM 8.6 °F -9.5 °F 1.4 °F 73% 30.26 in 10.0 mi SSW 17.3 mph 20.7 mph N/A   Clear
1:36 AM 10.4 °F -7.2 °F 1.4 °F 67% 30.26 in 10.0 mi SW 17.3 mph 23.0 mph N/A   Clear
1:56 AM 8.6 °F -10.5 °F 1.4 °F 73% 30.26 in 10.0 mi South 19.6 mph - N/A   Clear
2:16 AM 8.6 °F -10.0 °F -0.4 °F 67% 30.26 in 10.0 mi SSE 18.4 mph 25.3 mph N/A   Clear
2:36 AM 8.6 °F -11.0 °F 1.4 °F 73% 30.26 in 10.0 mi SSE 20.7 mph - N/A   Clear
2:56 AM 8.6 °F -10.0 °F 1.4 °F 73% 30.26 in 10.0 mi South 18.4 mph 21.9 mph N/A   Clear
3:16 AM 8.6 °F -10.0 °F -0.4 °F 67% 30.26 in 10.0 mi South 18.4 mph 24.2 mph N/A   Clear
3:36 AM 8.6 °F -8.3 °F -0.4 °F 67% 30.26 in 10.0 mi South 15.0 mph - N/A   Clear
3:56 AM 6.8 °F -10.7 °F -2.2 °F 67% 30.26 in 10.0 mi South 15.0 mph 19.6 mph N/A   Clear
4:16 AM 6.8 °F -9.3 °F -0.4 °F 72% 30.26 in 10.0 mi South 12.7 mph - N/A   Clear
4:36 AM 6.8 °F -9.3 °F -0.4 °F 72% 30.25 in 10.0 mi South 12.7 mph 20.7 mph N/A   Clear
4:56 AM 6.8 °F -10.0 °F -2.2 °F 67% 30.25 in 10.0 mi SSE 13.8 mph - N/A   Clear
5:16 AM 6.8 °F -10.0 °F -0.4 °F 72% 30.25 in 10.0 mi South 13.8 mph - N/A   Clear
5:36 AM 6.8 °F -9.3 °F -0.4 °F 72% 30.26 in 10.0 mi South 12.7 mph - N/A   Clear
6:16 AM 6.8 °F -11.8 °F -0.4 °F 72% 30.25 in 10.0 mi South 17.3 mph - N/A   Clear
6:36 AM 6.8 °F -10.7 °F -0.4 °F 72% 30.25 in 10.0 mi South 15.0 mph - N/A   Clear
6:56 AM 8.6 °F -7.7 °F -0.4 °F 67% 30.25 in 10.0 mi South 13.8 mph - N/A   Clear
7:16 AM 6.8 °F -11.3 °F -0.4 °F 72% 30.25 in 10.0 mi South 16.1 mph - N/A   Clear
7:36 AM 8.6 °F -7.0 °F -0.4 °F 67% 30.25 in 10.0 mi South 12.7 mph - N/A   Clear
7:56 AM 8.6 °F -7.7 °F -0.4 °F 67% 30.25 in 10.0 mi South 13.8 mph - N/A   Clear
8:16 AM 8.6 °F -7.0 °F -0.4 °F 67% 30.25 in 10.0 mi South 12.7 mph - N/A   Clear
8:36 AM 6.8 °F -8.6 °F -0.4 °F 72% 30.25 in 10.0 mi South 11.5 mph - N/A   Clear
8:56 AM 6.8 °F -8.6 °F -2.2 °F 67% 30.25 in 10.0 mi South 11.5 mph - N/A   Clear
9:16 AM 6.8 °F -6.9 °F -0.4 °F 72% 30.25 in 10.0 mi South 9.2 mph - N/A   Clear
9:36 AM 6.8 °F -8.6 °F -2.2 °F 67% 30.25 in 10.0 mi South 11.5 mph - N/A   Clear
9:56 AM 6.8 °F -9.3 °F -0.4 °F 72% 30.25 in 8.0 mi South 12.7 mph 18.4 mph N/A   Clear
10:16 AM 6.8 °F -10.7 °F -0.4 °F 72% 30.25 in 10.0 mi South 15.0 mph - N/A   Clear
10:36 AM 6.8 °F -9.3 °F -2.2 °F 67% 30.26 in 10.0 mi South 12.7 mph - N/A   Clear
10:56 AM 6.8 °F -9.3 °F -0.4 °F 72% 30.26 in 10.0 mi South 12.7 mph - N/A   Clear
11:16 AM 6.8 °F -10.0 °F -0.4 °F 72% 30.26 in 10.0 mi South 13.8 mph - N/A   Clear
11:36 AM 6.8 °F -7.8 °F -2.2 °F 67% 30.26 in 10.0 mi South 10.4 mph - N/A   Clear
11:56 AM 6.8 °F -10.0 °F -0.4 °F 72% 30.26 in 10.0 mi South 13.8 mph - N/A   Clear
12:16 PM 8.6 °F -7.7 °F -0.4 °F 67% 30.27 in 10.0 mi South 13.8 mph - N/A   Clear
12:36 PM 6.8 °F -10.0 °F -0.4 °F 72% 30.27 in 10.0 mi South 13.8 mph - N/A   Clear
12:56 PM 6.8 °F -10.7 °F -2.2 °F 67% 30.28 in 10.0 mi South 15.0 mph - N/A   Clear
1:16 PM 8.6 °F -8.9 °F -0.4 °F 67% 30.28 in 10.0 mi South 16.1 mph - N/A   Clear
1:36 PM 8.6 °F -7.7 °F -0.4 °F 67% 30.27 in 10.0 mi South 13.8 mph - N/A   Clear
1:56 PM 10.4 °F -4.8 °F 1.4 °F 67% 30.28 in 10.0 mi South 12.7 mph - N/A   Clear
2:16 PM 8.6 °F -6.3 °F -0.4 °F 67% 30.28 in 10.0 mi South 11.5 mph - N/A   Clear
2:36 PM 10.4 °F -6.0 °F 1.4 °F 67% 30.28 in 10.0 mi South 15.0 mph - N/A   Clear
2:56 PM 10.4 °F -0.4 °F 1.4 °F 67% 30.28 in 10.0 mi South 6.9 mph - N/A   Clear
3:16 PM 12.2 °F -3.1 °F 1.4 °F 62% 30.28 in 10.0 mi South 13.8 mph - N/A   Clear
3:36 PM 12.2 °F -1.8 °F 1.4 °F 62% 30.28 in 10.0 mi South 11.5 mph - N/A   Clear
3:56 PM 12.2 °F -3.1 °F 1.4 °F 62% 30.29 in 10.0 mi South 13.8 mph - N/A   Clear
4:16 PM 12.2 °F -4.3 °F 3.2 °F 67% 30.29 in 10.0 mi South 16.1 mph - N/A   Clear
4:36 PM 12.2 °F -3.1 °F 1.4 °F 62% 30.29 in 10.0 mi South 13.8 mph - N/A   Clear
4:56 PM 10.4 °F -4.1 °F 1.4 °F 67% 30.29 in 10.0 mi South 11.5 mph - N/A   Clear
5:16 PM 10.4 °F -0.4 °F 1.4 °F 67% 30.30 in 10.0 mi SSW 6.9 mph - N/A   Clear
5:36 PM 10.4 °F -3.3 °F 1.4 °F 67% 30.30 in 10.0 mi South 10.4 mph - N/A   Clear
5:56 PM 8.6 °F -2.6 °F -0.4 °F 67% 30.31 in 10.0 mi South 6.9 mph - N/A   Clear
6:16 PM 8.6 °F -4.7 °F -0.4 °F 67% 30.32 in 10.0 mi SSW 9.2 mph - N/A   Clear
6:36 PM 8.6 °F -2.6 °F -0.4 °F 67% 30.32 in 10.0 mi SSW 6.9 mph - N/A   Clear
6:56 PM 8.6 °F -4.7 °F -0.4 °F 67% 30.32 in 10.0 mi South 9.2 mph - N/A   Clear
7:16 PM 8.6 °F -1.3 °F -0.4 °F 67% 30.33 in 10.0 mi SSW 5.8 mph - N/A   Clear
7:36 PM 5.0 °F - -4.0 °F 66% 30.33 in 10.0 mi Calm Calm - N/A   Clear
7:56 PM 3.2 °F -4.2 °F -5.8 °F 66% 30.33 in 10.0 mi SSW 3.5 mph - N/A   Clear
8:16 PM 1.4 °F - -5.8 °F 72% 30.33 in 10.0 mi Calm Calm - N/A   Clear
8:36 PM 1.4 °F - -5.8 °F 72% 30.33 in 10.0 mi Calm Calm - N/A   Clear
8:56 PM 1.4 °F - -5.8 °F 72% 30.34 in 10.0 mi Calm Calm - N/A   Clear
9:16 PM 1.4 °F - -7.6 °F 66% 30.35 in 10.0 mi Calm Calm - N/A   Clear
9:36 PM -0.4 °F - -7.6 °F 72% 30.34 in 10.0 mi Calm Calm - N/A   Clear
9:56 PM -0.4 °F -8.3 °F -7.6 °F 72% 30.36 in 10.0 mi SSW 3.5 mph - N/A   Clear
10:16 PM -0.4 °F -8.3 °F -7.6 °F 72% 30.36 in 10.0 mi West 3.5 mph - N/A   Clear
10:36 PM -0.4 °F -8.3 °F -7.6 °F 72% 30.36 in 10.0 mi SSW 3.5 mph - N/A   Clear
10:56 PM -0.4 °F - -7.6 °F 72% 30.36 in 10.0 mi Calm Calm - N/A   Clear
11:16 PM -0.4 °F - -9.4 °F 66% 30.36 in 10.0 mi Calm Calm - N/A   Clear
11:36 PM -0.4 °F -8.3 °F -7.6 °F 72% 30.36 in 10.0 mi SE 3.5 mph - N/A   Clear
11:56 PM -0.4 °F - -7.6 °F 72% 30.37 in 10.0 mi Calm Calm - N/A   Clear